Wind_Speed
10 9 10 9 7 5 4 3 3 6 10 11 7 8 10 18 15 7 3 5 15 24 25 24 22 20 17 12 11 14 11 9 7 7 5 4 6 7 8 10 11 13 14 15 17 16 15 15 14
10 10 10 9 7 6 5 3 3 4 6 7 5 6 8 18 16 13 6 4 9 23 26 25 23 20 17 14 15 16 13 11 9 8 6 7 7 8 9 11 13 15 15 15 16 18 18 17 15
9 8 8 6 9 10 6 1 2 2 6 6 6 5 6 9 14 12 11 8 4 18 25 24 23 21 17 16 17 17 13 13 10 10 9 9 10 11 12 13 15 17 17 17 18 19 19 18 18
8 8 8 10 11 6 7 5 5 6 6 5 4 5 7 6 7 11 11 13 8 20 23 22 23 19 21 18 16 17 13 14 12 11 11 12 15 16 17 18 18 19 19 19 19 20 22 21 20
6 8 8 8 7 5 8 8 7 9 10 6 7 4 5 7 3 6 9 13 14 21 19 20 24 23 26 18 16 17 16 15 14 14 13 15 17 18 19 21 22 22 21 21 21 22 24 24 24
6 6 7 7 4 5 5 7 8 14 11 7 8 6 2 5 1 3 5 9 14 18 23 20 25 27 25 19 18 19 17 17 17 17 16 17 18 19 20 21 23 23 23 22 22 22 23 25 26
6 7 8 6 3 2 4 5 6 12 13 11 10 7 4 2 2 2 5 7 13 16 19 24 26 27 24 19 21 19 18 18 19 18 19 20 20 21 21 22 23 23 22 22 22 22 23 25 26
8 7 7 6 5 5 2 1 1 6 10 12 9 5 3 3 3 4 4 6 9 14 17 19 18 20 20 21 20 17 19 19 20 20 22 22 22 24 25 25 24 24 23 23 22 22 22 24 25
9 8 7 7 6 4 3 3 3 3 5 7 7 8 8 7 6 6 8 9 10 12 15 14 16 19 19 16 16 18 19 20 21 22 23 23 25 26 27 28 27 25 25 24 24 24 23 24 26
10 11 7 10 9 6 6 5 5 6 8 9 8 8 8 9 8 8 10 10 12 12 15 16 18 17 15 16 18 19 21 23 23 24 25 26 28 29 29 28 27 28 28 28 27 27 27 26 26
13 13 11 13 14 12 10 9 8 9 10 9 11 12 12 12 9 9 9 8 9 13 15 16 16 16 17 18 20 22 24 24 25 26 28 29 29 29 29 31 31 31 31 31 31 31 31 30 29
15 16 16 15 14 14 16 17 14 16 14 16 17 17 17 15 12 10 9 8 9 11 13 14 15 16 17 19 21 22 24 25 27 28 29 28 29 30 30 31 32 32 33 33 33 33 33 35 34
16 17 18 18 16 16 18 17 19 19 18 18 18 18 20 19 17 14 12 10 11 12 11 12 13 14 17 19 20 22 24 25 26 26 26 27 28 29 29 30 31 32 34 35 36 37 37 37 38
17 17 17 20 21 23 23 22 24 24 23 22 20 18 18 18 17 14 12 11 12 13 13 14 14 16 16 17 18 19 21 22 22 23 24 25 26 28 29 30 32 34 35 37 39 40 40 40 40
17 17 17 18 20 20 22 19 19 21 20 22 23 20 18 19 18 16 15 14 13 15 16 16 17 17 17 17 17 17 17 18 19 21 22 23 25 27 28 30 31 32 33 35 36 38 40 41 42
18 18 17 14 14 13 13 12 11 13 16 19 17 15 15 16 16 16 16 17 18 19 20 19 18 17 17 16 16 16 16 17 18 20 22 24 26 27 27 28 28 30 32 33 35 36 37 39 41
12 11 13 13 13 12 11 9 10 11 10 12 17 19 18 19 19 18 19 20 20 21 22 21 18 16 14 14 13 15 15 17 19 21 22 24 24 24 24 26 27 28 29 31 32 34 36 37 38
10 13 15 16 14 11 15 18 17 16 15 13 12 15 20 22 22 22 22 22 22 22 22 21 17 13 13 13 14 16 17 19 20 22 22 22 23 24 25 25 25 26 29 30 31 33 36 38 38
20 19 20 21 18 24 24 23 20 18 20 20 19 18 20 21 23 24 24 25 25 24 23 21 16 13 11 11 13 14 17 20 21 22 21 22 22 21 22 24 25 26 27 28 29 30 32 35 37
19 22 24 23 17 21 23 24 22 23 16 15 16 22 23 23 24 24 25 26 27 26 24 20 16 12 13 14 15 18 20 21 22 21 19 19 21 22 23 24 24 25 27 28 29 29 30 33 34
22 24 24 21 18 19 21 23 18 10 20 21 13 12 17 20 23 25 27 27 27 26 24 18 15 14 13 14 18 22 22 23 23 19 19 21 23 24 25 26 25 25 25 27 28 29 30 31 35
15 12 14 16 15 11 9 11 15 20 16 15 16 18 16 19 21 24 26 29 29 27 20 17 16 14 15 17 24 27 30 25 20 19 22 24 25 26 26 25 25 24 24 25 25 27 28 29 30
7 3 3 7 11 14 11 12 11 10 17 15 15 13 12 13 15 21 23 26 28 24 20 17 13 15 19 22 22 23 25 19 18 20 23 24 28 26 24 24 25 24 24 23 23 24 25 26 28
10 5 7 11 13 8 15 15 8 7 5 7 8 15 18 11 11 13 18 22 22 19 15 14 14 16 21 18 20 18 17 19 20 22 24 27 26 24 24 24 23 23 23 22 22 22 22 24 26
18 11 4 3 3 5 5 8 18 7 9 10 12 16 14 12 10 7 8 10 12 11 12 11 16 13 16 18 17 17 18 20 23 24 26 25 24 24 23 22 21 21 20 19 18 18 18 20 23
6 17 8 5 4 7 6 8 10 9 12 20 20 14 13 10 7 1 1 3 9 9 12 14 14 14 14 14 15 16 19 21 23 24 24 22 22 21 20 19 18 18 16 16 16 16 16 16 19
5 8 8 15 14 6 10 18 23 21 18 12 16 12 12 10 8 6 4 4 7 11 14 12 14 15 15 13 13 16 18 19 21 21 22 21 19 17 16 15 15 15 15 15 14 15 15 15 16
14 9 5 6 4 6 7 15 14 17 12 15 12 8 11 11 10 8 8 9 10 12 11 13 15 16 15 15 15 16 17 20 21 21 18 17 16 14 13 13 14 14 14 14 14 14 14 15 15
14 13 9 8 9 6 8 12 6 13 19 13 11 10 12 13 13 12 13 13 13 14 14 16 18 20 20 18 18 18 20 20 18 15 16 15 13 12 12 13 13 13 12 12 12 13 13 13 13
17 18 16 10 10 11 10 33 18 22 21 16 13 14 18 19 17 18 18 19 20 21 21 21 20 21 21 20 22 21 20 16 14 15 13 12 10 10 11 11 11 10 10 11 11 11 11 11 12
Wind_Direction
291 288 284 280 269 237 230 213 235 258 265 238 256 226 224 215 207 210 153 207 206 203 199 193 196 199 206 215 218 233 239 248 256 263 272 293 306 320 328 326 324 319 309 298 292 288 288 292 295
292 283 275 272 254 238 213 207 268 285 200 155 179 214 231 213 219 240 239 12 215 204 201 200 200 203 207 213 239 235 240 252 251 253 243 267 282 300 311 316 320 317 311 298 289 285 284 284 285
289 277 263 253 248 246 208 206 342 130 150 169 167 193 211 232 230 241 267 267 247 205 201 201 204 208 216 242 236 241 244 255 256 249 263 272 287 296 303 307 311 307 303 297 287 278 278 279 283
290 280 256 247 253 260 215 292 281 235 192 175 176 185 219 229 248 248 263 271 261 204 204 211 215 231 226 252 225 238 246 253 255 261 272 287 296 301 306 307 306 303 299 291 283 274 269 268 272
281 271 254 260 277 275 257 280 270 241 230 230 207 210 185 200 210 223 247 256 250 207 218 222 219 229 228 244 233 241 244 249 251 258 271 281 288 297 302 306 308 305 300 292 283 273 267 265 265
263 263 258 265 284 268 257 254 249 227 217 232 237 265 184 167 146 208 239 247 245 223 225 228 231 231 231 235 236 240 246 250 255 264 273 280 286 292 297 302 305 304 301 293 285 276 270 266 265
259 269 266 268 239 222 236 250 235 220 213 240 246 231 238 269 321 279 285 257 246 237 227 216 222 224 237 237 234 238 249 256 263 272 277 280 285 290 296 300 302 300 298 295 291 284 277 270 265
257 262 267 248 209 177 177 214 220 215 232 247 243 228 257 308 315 284 259 239 240 242 235 229 227 229 227 226 236 246 255 264 272 276 278 285 292 296 300 300 299 298 294 293 294 291 285 278 270
257 256 249 217 185 180 182 201 208 213 228 248 251 260 287 301 306 259 282 271 248 233 241 241 235 231 234 241 248 256 264 269 272 276 282 289 293 296 298 299 297 295 294 292 292 291 292 287 281
251 256 250 217 212 208 210 222 230 224 237 236 246 260 275 293 294 275 272 262 258 240 235 235 237 242 246 249 254 261 266 270 274 280 286 289 292 294 294 293 294 294 293 291 291 292 292 291 288
257 257 254 236 241 245 246 243 238 244 253 257 258 269 277 283 280 271 263 255 240 228 228 236 241 246 253 260 265 270 274 276 279 282 286 289 291 293 295 296 296 294 292 291 290 292 292 290 287
255 256 259 256 254 252 257 258 250 244 253 259 270 275 277 277 276 264 247 238 226 217 218 226 236 246 255 262 267 270 273 276 279 282 285 288 292 294 295 295 296 294 293 292 291 291 291 292 289
261 258 259 260 262 262 259 266 266 258 255 257 264 264 264 266 256 250 250 245 241 231 225 229 240 251 259 265 270 274 277 279 282 285 288 291 294 296 297 297 297 297 296 294 292 292 290 288 288
267 264 262 266 267 267 268 270 269 272 270 264 262 262 261 247 242 246 243 247 233 228 227 235 244 253 262 270 279 283 285 287 289 291 294 296 297 295 295 295 294 293 293 292 291 290 289 288 286
272 272 270 270 271 269 271 272 265 267 265 259 260 261 249 242 246 245 240 237 233 228 231 240 249 258 266 274 280 286 290 291 292 294 296 297 298 298 299 299 299 298 296 295 293 291 289 287 284
279 280 277 261 256 258 266 262 263 270 266 263 257 245 241 237 239 241 241 238 237 235 240 246 257 266 273 277 282 287 289 291 294 298 299 301 300 300 301 302 303 303 303 302 300 298 294 290 287
282 271 274 270 266 263 258 248 270 286 290 272 258 250 246 248 246 247 247 245 247 249 253 260 269 277 282 286 291 294 295 299 301 302 303 302 302 304 307 307 306 306 306 306 306 304 301 296 292
270 273 269 265 256 256 264 270 277 283 284 286 279 267 256 256 253 252 254 254 255 257 262 271 279 285 289 295 294 293 297 301 303 303 304 304 305 306 307 308 311 313 312 312 311 310 308 304 301
280 274 273 275 276 283 278 279 283 288 291 287 277 267 266 261 256 259 262 261 262 265 269 273 280 284 291 296 295 301 306 305 306 307 305 303 305 306 308 310 312 313 313 313 314 315 314 310 307
274 279 280 286 290 286 285 282 281 287 298 309 289 270 258 252 254 256 260 263 262 263 267 270 274 273 280 287 304 310 311 310 309 304 304 306 309 311 313 312 313 314 315 316 318 318 321 321 317
269 276 284 288 295 287 290 288 287 273 301 304 281 260 260 260 257 252 252 258 262 262 262 265 264 267 281 294 315 318 316 311 308 305 307 313 315 314 314 312 314 315 315 316 318 321 325 331 331
291 297 278 274 273 271 276 291 271 288 295 286 275 276 272 273 263 256 252 254 257 255 258 265 262 274 287 297 311 310 304 300 301 302 310 310 309 310 309 312 316 318 320 322 323 324 328 334 337
296 328 277 261 261 274 273 275 286 284 286 273 268 273 291 288 276 260 253 253 253 256 264 259 276 285 297 307 299 293 293 295 296 299 304 304 308 309 310 314 315 317 319 319 322 325 327 336 342
244 241 271 274 272 263 268 243 294 268 229 231 267 295 299 277 290 275 252 248 246 250 251 263 297 298 301 301 296 294 292 295 297 300 300 305 308 307 309 311 315 316 317 320 320 321 327 337 346
232 252 290 262 207 263 265 240 259 225 246 275 300 301 283 289 284 279 239 217 221 219 243 261 281 296 295 298 298 295 296 296 297 299 299 306 305 308 310 313 316 316 316 318 322 323 329 334 342
250 237 212 248 253 284 237 244 266 269 271 292 303 286 268 260 270 347 148 203 191 217 257 272 273 291 292 303 294 292 292 291 293 294 301 303 304 305 306 309 314 315 319 324 326 329 333 336 342
231 231 255 252 258 269 256 269 280 273 276 291 298 279 239 239 246 296 285 221 228 251 265 266 275 292 295 293 283 284 287 291 296 304 305 302 303 305 308 314 318 322 326 329 331 334 338 340 345
267 248 217 215 260 263 268 280 254 278 298 293 278 279 229 236 240 270 248 244 243 251 264 277 281 283 294 296 288 289 295 304 307 303 298 298 301 305 312 319 324 328 330 334 338 343 348 347 351
252 235 236 243 236 255 282 266 270 292 297 287 277 252 249 238 249 231 237 248 256 255 271 280 288 295 295 299 297 297 303 302 297 293 293 294 300 309 320 326 327 331 334 340 345 353 355 357 6
255 258 264 241 258 248 263 272 283 289 281 275 248 261 260 262 250 235 237 244 250 253 259 269 280 283 289 294 292 292 296 290 286 286 288 294 303 318 323 327 330 337 343 348 355 359 4 14 22
Height
3150 3149 3149 3150 3154 3150 3148 3149 3148 3147 3146 3146 3146 3146 3147 3148 3150 3153 3151 3153 3155 3158 3161 3162 3163 3163 3165 3167 3167 3169 3171 3171 3171 3171 3171 3171 3171 3171 3170 3169 3169 3168 3168 3168 3167 3166 3165 3164 3163
3148 3148 3148 3147 3149 3147 3147 3146 3146 3145 3144 3144 3145 3145 3145 3145 3147 3148 3150 3151 3152 3155 3158 3160 3162 3163 3165 3164 3166 3167 3169 3170 3169 3169 3169 3169 3169 3169 3168 3167 3167 3166 3165 3165 3165 3164 3163 3162 3161
3146 3146 3147 3145 3144 3145 3145 3144 3145 3145 3144 3145 3145 3145 3145 3145 3147 3148 3149 3150 3152 3154 3156 3159 3161 3162 3163 3163 3165 3167 3168 3169 3168 3168 3167 3166 3166 3166 3165 3164 3163 3163 3162 3161 3161 3161 3160 3160 3158
3143 3144 3145 3142 3142 3144 3143 3143 3144 3144 3144 3144 3145 3145 3145 3145 3146 3147 3148 3149 3151 3152 3155 3157 3160 3161 3162 3163 3164 3166 3166 3167 3166 3166 3166 3165 3165 3164 3163 3162 3161 3160 3159 3157 3157 3157 3157 3156 3155
3142 3142 3141 3141 3141 3141 3141 3141 3142 3142 3143 3144 3144 3144 3144 3144 3145 3146 3147 3147 3148 3152 3153 3155 3157 3156 3158 3160 3161 3163 3164 3164 3164 3164 3163 3162 3162 3161 3161 3160 3158 3156 3155 3154 3153 3153 3153 3152 3151
3140 3140 3139 3138 3138 3139 3139 3139 3139 3139 3141 3142 3143 3143 3144 3144 3144 3144 3145 3145 3146 3148 3150 3152 3154 3154 3156 3157 3159 3161 3162 3162 3162 3162 3161 3160 3160 3159 3158 3155 3154 3152 3151 3150 3149 3148 3148 3148 3147
3137 3138 3137 3136 3136 3137 3137 3137 3136 3137 3139 3140 3141 3142 3142 3142 3142 3142 3143 3143 3144 3144 3146 3147 3148 3151 3153 3155 3157 3158 3159 3160 3160 3159 3158 3158 3157 3155 3153 3152 3150 3148 3147 3146 3145 3143 3142 3142 3142
3136 3136 3135 3135 3134 3135 3135 3135 3135 3136 3138 3139 3140 3140 3140 3140 3140 3140 3140 3141 3142 3143 3143 3144 3147 3148 3151 3153 3154 3155 3156 3157 3156 3156 3156 3154 3153 3152 3149 3147 3146 3145 3142 3141 3140 3139 3138 3137 3136
3134 3134 3134 3133 3133 3134 3134 3134 3134 3135 3137 3138 3138 3138 3139 3139 3139 3139 3139 3139 3139 3139 3141 3143 3145 3147 3149 3150 3152 3153 3153 3152 3152 3152 3150 3149 3148 3146 3145 3144 3142 3139 3138 3136 3135 3134 3134 3133 3132
3132 3131 3132 3132 3131 3132 3132 3133 3132 3134 3135 3137 3137 3137 3137 3136 3137 3137 3137 3136 3136 3137 3138 3140 3143 3144 3146 3147 3148 3148 3148 3149 3148 3147 3146 3144 3143 3141 3139 3137 3136 3135 3134 3131 3130 3129 3128 3127 3126
3128 3129 3130 3130 3129 3130 3131 3131 3130 3132 3134 3135 3135 3135 3135 3135 3135 3134 3133 3133 3133 3134 3135 3137 3139 3141 3142 3143 3144 3145 3145 3145 3144 3143 3142 3140 3138 3136 3135 3133 3131 3129 3127 3126 3124 3123 3122 3120 3120
3125 3125 3127 3126 3126 3127 3128 3128 3128 3128 3130 3131 3131 3131 3131 3131 3131 3131 3131 3131 3131 3132 3133 3134 3136 3137 3138 3140 3141 3141 3140 3140 3139 3137 3136 3135 3133 3131 3129 3127 3126 3124 3122 3120 3118 3117 3116 3115 3113
3121 3122 3122 3122 3123 3123 3124 3124 3124 3124 3126 3127 3128 3128 3128 3128 3128 3127 3128 3128 3129 3129 3130 3131 3133 3134 3135 3136 3136 3136 3135 3134 3133 3132 3130 3128 3126 3125 3123 3121 3118 3117 3115 3113 3111 3110 3109 3107 3106
3118 3117 3118 3118 3118 3118 3119 3120 3119 3119 3120 3121 3122 3123 3123 3123 3124 3125 3125 3126 3126 3126 3127 3128 3128 3129 3130 3130 3130 3129 3129 3128 3127 3125 3124 3122 3120 3119 3116 3114 3111 3108 3106 3104 3103 3101 3100 3099 3098
3113 3113 3113 3113 3113 3112 3113 3114 3113 3113 3113 3114 3116 3117 3118 3118 3120 3121 3122 3123 3123 3124 3124 3124 3124 3125 3124 3124 3124 3123 3123 3122 3121 3120 3119 3117 3115 3112 3110 3107 3105 3102 3099 3096 3093 3090 3089 3087 3086
3111 3110 3109 3108 3108 3109 3110 3110 3108 3107 3108 3109 3110 3112 3114 3115 3116 3117 3117 3118 3118 3119 3119 3120 3120 3119 3119 3119 3118 3118 3118 3117 3116 3115 3113 3112 3109 3107 3104 3101 3098 3095 3092 3089 3087 3083 3080 3078 3075
3106 3106 3106 3106 3106 3106 3106 3106 3105 3104 3104 3105 3106 3107 3108 3109 3111 3112 3112 3113 3113 3113 3114 3114 3114 3114 3114 3114 3114 3113 3112 3112 3111 3109 3107 3105 3103 3101 3098 3096 3093 3090 3086 3082 3079 3075 3072 3068 3066
3102 3102 3101 3102 3102 3101 3101 3101 3102 3101 3101 3102 3103 3103 3103 3104 3105 3106 3107 3108 3109 3109 3110 3110 3109 3110 3110 3109 3109 3108 3108 3107 3105 3104 3101 3099 3097 3095 3093 3091 3087 3084 3081 3077 3074 3070 3064 3059 3056
3099 3098 3097 3098 3099 3095 3095 3093 3096 3096 3096 3097 3098 3099 3099 3099 3101 3102 3103 3104 3104 3105 3105 3105 3105 3105 3106 3105 3104 3103 3102 3101 3099 3097 3095 3094 3092 3090 3088 3085 3082 3078 3075 3071 3068 3065 3059 3053 3048
3095 3095 3093 3093 3095 3092 3089 3088 3089 3089 3090 3091 3092 3092 3092 3094 3096 3097 3098 3098 3099 3100 3100 3100 3100 3100 3100 3100 3100 3099 3097 3096 3095 3093 3092 3090 3088 3086 3083 3080 3076 3073 3070 3067 3063 3059 3055 3048 3041
3089 3089 3091 3091 3089 3088 3086 3083 3083 3083 3084 3084 3084 3086 3087 3088 3089 3090 3091 3092 3093 3094 3095 3096 3096 3096 3096 3095 3095 3094 3092 3091 3090 3089 3088 3085 3083 3080 3077 3075 3071 3068 3064 3061 3057 3053 3048 3044 3036
3084 3083 3084 3087 3087 3085 3084 3079 3080 3079 3077 3078 3078 3078 3080 3082 3081 3081 3082 3083 3086 3089 3091 3091 3092 3091 3090 3090 3089 3088 3088 3087 3086 3084 3082 3081 3078 3075 3073 3070 3067 3063 3059 3056 3052 3048 3044 3039 3034
3082 3080 3081 3082 3084 3083 3080 3082 3073 3074 3074 3073 3075 3075 3075 3075 3075 3075 3076 3078 3081 3085 3087 3087 3086 3087 3085 3084 3084 3084 3084 3082 3081 3079 3079 3076 3075 3071 3067 3064 3061 3058 3055 3052 3048 3044 3041 3036 3031
3081 3079 3080 3079 3079 3080 3075 3077 3069 3068 3069 3070 3072 3072 3070 3070 3071 3070 3070 3071 3075 3079 3082 3083 3082 3082 3080 3081 3081 3079 3079 3079 3078 3076 3074 3070 3068 3065 3062 3059 3057 3054 3051 3048 3044 3041 3038 3033 3028
3078 3078 3079 3077 3075 3072 3070 3071 3064 3065 3066 3068 3069 3068 3067 3066 3065 3065 3066 3068 3070 3073 3076 3077 3077 3076 3077 3076 3076 3075 3075 3075 3073 3071 3069 3064 3063 3060 3057 3055 3053 3050 3048 3044 3041 3038 3034 3031 3027
3073 3075 3076 3072 3070 3068 3068 3062 3060 3062 3064 3064 3065 3063 3062 3061 3061 3063 3064 3065 3067 3068 3071 3073 3073 3073 3072 3072 3071 3070 3071 3070 3069 3066 3063 3060 3058 3056 3054 3051 3049 3047 3045 3041 3039 3035 3032 3029 3025
3072 3071 3071 3071 3070 3068 3062 3058 3056 3057 3060 3060 3060 3058 3059 3059 3059 3060 3061 3061 3064 3066 3067 3067 3069 3068 3068 3067 3066 3066 3066 3064 3063 3060 3058 3056 3054 3052 3050 3048 3047 3044 3041 3038 3036 3033 3029 3026 3022
3070 3070 3069 3069 3066 3062 3056 3054 3052 3053 3056 3056 3056 3055 3057 3057 3057 3058 3058 3059 3060 3061 3062 3063 3064 3064 3063 3062 3062 3061 3060 3058 3056 3055 3054 3052 3051 3050 3047 3045 3043 3040 3037 3035 3032 3030 3027 3024 3020
3067 3065 3065 3065 3063 3059 3057 3045 3049 3050 3052 3052 3053 3053 3053 3053 3054 3055 3055 3056 3056 3057 3058 3058 3058 3058 3058 3057 3056 3055 3053 3053 3052 3051 3050 3049 3048 3046 3043 3041 3039 3037 3034 3032 3030 3027 3025 3022 3019
3060 3060 3060 3060 3058 3056 3056 3035 3044 3046 3046 3047 3049 3049 3048 3049 3049 3050 3050 3051 3051 3052 3053 3053 3053 3053 3053 3052 3051 3050 3049 3049 3048 3048 3047 3046 3044 3042 3040 3038 3036 3034 3032 3030 3028 3027 3024 3021 3018